This is the latest recevied weather packets stored in our database for station/object IK1YPD-13. If no packets are shown the sender has not sent any weather packets the latest 10 day(s).
| Time | Temp. | Humidity | Pressure | Rain* | Wind** | Luminosity | Snow |
|---|---|---|---|---|---|---|---|
| 1777660703 | 16.67° C | 46% | 1020 hPa | - | - | - | - |
| 1777659802 | 17.78° C | 41% | 1019 hPa | - | - | - | - |
| 1777658902 | 18.89° C | 40% | 1019 hPa | - | - | - | - |
| 1777658002 | 18.89° C | 34% | 1019 hPa | - | - | - | - |
| 1777657102 | 19.44° C | 31% | 1019 hPa | - | - | - | - |
| 1777656201 | 18.33° C | 54% | 1019 hPa | - | - | - | - |
| 1777655301 | 18.89° C | 54% | 1019 hPa | - | - | - | - |
| 1777653501 | 18.89° C | 48% | 1019 hPa | - | - | - | - |
| 1777652601 | 19.44° C | 49% | 1019 hPa | - | - | - | - |
| 1777651701 | 20° C | 48% | 1019 hPa | - | - | - | - |
| 1777649901 | 19.44° C | 45% | 1019 hPa | - | - | - | - |
| 1777649001 | 19.44° C | 46% | 1019 hPa | - | - | - | - |
| 1777648101 | 19.44° C | 49% | 1019 hPa | - | - | - | - |
| 1777647201 | 20° C | 44% | 1019 hPa | - | - | - | - |
| 1777646301 | 20° C | 45% | 1019 hPa | - | - | - | - |
| 1777645400 | 20° C | 42% | 1020 hPa | - | - | - | - |
| 1777644500 | 20° C | 40% | 1020 hPa | - | - | - | - |
| 1777643600 | 20° C | 42% | 1020 hPa | - | - | - | - |
| 1777642700 | 20° C | 44% | 1020 hPa | - | - | - | - |
| 1777641800 | 19.44° C | 46% | 1020 hPa | - | - | - | - |
| 1777640900 | 19.44° C | 46% | 1020 hPa | - | - | - | - |
| 1777639100 | 18.89° C | 44% | 1021 hPa | - | - | - | - |
| 1777638200 | 19.44° C | 45% | 1021 hPa | - | - | - | - |
| 1777637300 | 18.89° C | 45% | 1021 hPa | - | - | - | - |
| 1777636400 | 18.89° C | 42% | 1021 hPa | - | - | - | - |
* Rain since midnight (hover to see other rain measurements)
** Current wind speed in m/s (hover to see current wind gust speed)